Location: Endfield
(51.6667°N, 0.0667°W)
Time: 04:52:52
(UTC+00:00)

AO-27 - Visible Passes

Search period start: 13 September 2024 00:00
Search period end: 23 September 2024 00:00
Orbit: 784 x 796 km, 98.8° (Epoch: 12 September)

Date Brightness Start Highest point End Pass type
(mag) Time Alt. Az. Time Alt. Az. Time Alt. Az.
13 Sep 8.3 19:33:01 16° SE 19:36:44 38° ENE 19:41:32 10° N visible
13 Sep 8.8 21:13:45 25° SSW 21:16:12 39° W 21:21:06 10° NNW visible
14 Sep 8.9 19:03:15 10° ESE 19:07:24 24° ENE 19:11:33 10° N visible
14 Sep 7.9 20:43:55 31° S 20:46:27 67° WSW 20:51:40 10° NNW visible
14 Sep 10.3 22:25:28 10° W 22:26:55 11° W 22:28:21 10° WNW visible
15 Sep 7.6 20:14:05 29° SSE 20:16:49 75° ENE 20:22:03 10° NNW visible
15 Sep 9.8 21:54:48 16° WSW 21:56:51 19° W 22:00:35 10° NW visible
16 Sep 8.1 19:44:15 22° SE 19:47:18 45° ENE 19:52:16 10° N visible
16 Sep 9.1 21:24:58 25° SW 21:26:55 33° W 21:31:36 10° NNW visible
17 Sep 8.7 19:14:24 14° ESE 19:17:56 28° ENE 19:22:20 10° N visible
17 Sep 8.2 20:55:08 35° SSW 20:57:07 55° W 21:02:16 10° NNW visible
18 Sep 9.2 18:45:10 10° E 18:48:39 18° NE 18:52:09 10° N visible
18 Sep 7.6 20:25:18 37° SSE 20:27:27 88° ENE 20:32:41 10° NNW visible
18 Sep 9.9 22:06:01 14° WSW 22:07:37 16° W 22:10:49 10° NW visible
19 Sep 7.8 19:55:27 29° SE 19:57:53 54° ENE 20:02:58 10° N visible
19 Sep 9.3 21:36:12 24° WSW 21:37:38 27° W 21:42:03 10° NW visible
20 Sep 8.5 19:25:37 20° ESE 19:28:27 33° ENE 19:33:05 10° N visible
20 Sep 8.5 21:06:21 37° SW 21:07:47 46° W 21:12:48 10° NNW visible
21 Sep 9.0 18:55:47 12° E 18:59:09 21° NE 19:02:59 10° N visible
21 Sep 7.7 20:36:30 46° S 20:38:04 78° WSW 20:43:18 10° NNW visible
21 Sep 10.1 22:17:13 12° W 22:18:23 13° W 22:20:51 10° WNW visible
22 Sep 9.5 18:27:22 10° E 18:29:56 14° NE 18:32:31 10° NNE visible
22 Sep 7.7 20:06:39 39° SE 20:08:27 64° ENE 20:13:37 10° N visible
22 Sep 9.5 21:47:23 22° WSW 21:48:22 23° W 21:52:27 10° NW visible
